Location: Colorado Springs
(38.8340°N, 104.8210°W)
Time: 08:41:31
(UTC-06:00)

Tiangong 1 - Pass Details

Date: 15 October 2017
Orbit: 293 x 320 km, 42.8° (Epoch: 19 October)

Event Time Altitude Azimuth Distance (km) Brightness Sun altitude
Rises 19:45:05 0° 286° (WNW) 2,039 6.3 -17.3°
Reaches altitude 10° 19:47:09 10° 277° (W) 1,203 4.9 -17.7°
Maximum altitude 19:49:40 36° 209° (SSW) 515 1.9 -18.2°
Enters shadow 19:49:53 35° 196° (SSW) 523 1.8 -18.2°
